LA8QT Lodingen NO current weather conditions

sailwx.info

Wind from 359 at 1 knots

Air temperature 10.6° C
Dewpoint 5.3° C

Last reported at 2015-Jul-01 23:55 UTC.
Time now 2015-Jul-02 00:53 UTC

Location: N 68°28' E 016°04'.
View on Google Maps.

See reports from other nearby stations

  
Tides and Currents Weather Stations Pressure Air Temp Water Temp Dewpoint Dewpoint Depression Visibility Wind Speed Wind Dir Waves Ship Positions
date/time (UTC)wind fromknots sea level pressurealtimeterstation pressurevisibilityair tempwater tempwave heightnotes
2015-Jul-01 23:55 359 1 10.6
2015-Jul-01 23:40 346 3 11.1
2015-Jul-01 23:25 003 3 11.1
2015-Jul-01 23:10 013 4 11.1
2015-Jul-01 22:55 334 3 11.1
2015-Jul-01 22:40 340 3 11.1
2015-Jul-01 22:25 008 4 11.7
2015-Jul-01 22:09 359 4 11.1
2015-Jul-01 21:54 005 5 11.1
2015-Jul-01 21:39 016 3 11.1
2015-Jul-01 21:24 355 4 11.7
2015-Jul-01 21:09 003 0 11.7
2015-Jul-01 20:54 323 4 11.7
2015-Jul-01 20:39 358 2 11.7
2015-Jul-01 20:24 348 2 12.2
2015-Jul-01 20:09 342 2 11.7
2015-Jul-01 19:54 008 2 11.7
2015-Jul-01 19:39 355 4 12.2
2015-Jul-01 19:24 003 2 12.2
2015-Jul-01 19:09 006 2 12.2
2015-Jul-01 18:54 339 4 12.2
2015-Jul-01 18:39 013 4 12.8
2015-Jul-01 18:24 178 13.3
2015-Jul-01 18:09 178 12.8
2015-Jul-01 17:54 178 12.8
2015-Jul-01 17:39 178 12.8
2015-Jul-01 17:24 178 12.8
2015-Jul-01 17:09 178 12.8
2015-Jul-01 16:54 178 1 12.8
2015-Jul-01 16:39 188 13.3
2015-Jul-01 16:24 207 12.8
2015-Jul-01 16:09 221 12.8
2015-Jul-01 15:54 150 12.8
2015-Jul-01 15:39 149 12.8
2015-Jul-01 15:24 149 12.8
2015-Jul-01 15:09 150 1 12.8
2015-Jul-01 14:54 174 0 13.3
2015-Jul-01 14:39 174 13.9
2015-Jul-01 14:24 174 1 13.3
2015-Jul-01 14:09 180 1 13.3
2015-Jul-01 13:54 187 1 13.9
2015-Jul-01 13:39 182 14.4
2015-Jul-01 13:24 182 0 14.4
2015-Jul-01 13:09 179 0 13.9
2015-Jul-01 12:54 144 2 13.3
2015-Jul-01 12:39 153 1 12.8
2015-Jul-01 12:24 145 1 13.3
2015-Jul-01 12:09 149 0 13.3
2015-Jul-01 11:54 172 1 13.3
2015-Jul-01 11:39 171 2 13.3
2015-Jul-01 11:24 180 1 12.8
2015-Jul-01 11:09 152 2 12.2
2015-Jul-01 10:54 151 3 12.2
2015-Jul-01 10:39 148 2 12.2
2015-Jul-01 10:24 154 3 12.2
2015-Jul-01 10:09 153 1 12.8
2015-Jul-01 09:54 148 4 11.7
2015-Jul-01 09:39 170 2 12.2
2015-Jul-01 09:24 158 2 12.2
2015-Jul-01 09:09 146 2 11.7
2015-Jul-01 08:54 144 0 11.7
2015-Jul-01 08:39 144 1 10.6
2015-Jul-01 08:24 131 0 10.6
2015-Jul-01 08:09 030 10.6
2015-Jul-01 07:54 029 0 11.1
2015-Jul-01 07:39 029 0 11.1
2015-Jul-01 07:24 029 2 11.1
2015-Jul-01 07:09 030 3 10.6
2015-Jul-01 06:54 018 2 11.1
2015-Jul-01 06:39 017 3 10.0
2015-Jul-01 06:24 016 6 9.4
2015-Jul-01 06:09 015 7 9.4
2015-Jul-01 05:54 020 7 9.4
2015-Jul-01 05:39 008 6 9.4
2015-Jul-01 05:23 018 6 9.4
2015-Jul-01 05:08 016 4 9.4
2015-Jul-01 04:53 353 3 9.4
2015-Jul-01 04:38 001 4 8.9
2015-Jul-01 04:23 350 2 8.9
2015-Jul-01 04:08 337 3 8.9
2015-Jul-01 03:53 349 3 8.3
2015-Jul-01 03:38 009 2 8.3
2015-Jul-01 03:23 350 4 8.3
2015-Jul-01 03:08 009 1 8.3
2015-Jul-01 02:53 009 2 8.3
2015-Jul-01 02:38 020 8.3
2015-Jul-01 02:23 312 2 7.8
2015-Jul-01 02:08 335 3 7.8
2015-Jul-01 01:53 358 2 7.8
2015-Jul-01 01:38 345 3 7.8
2015-Jul-01 01:23 337 4 7.8
2015-Jul-01 01:08 345 4 7.8
2015-Jul-01 00:23 328 3 7.8
2015-Jul-01 00:08 345 2 7.8
2015-Jun-30 23:53 326 7.8
2015-Jun-30 23:38 326 7.8
2015-Jun-30 23:23 326 1 7.8
2015-Jun-30 23:08 335 2 7.8
2015-Jun-30 22:53 336 3 7.8
2015-Jun-30 22:23 326 4 8.3
2015-Jun-30 22:08 328 3 8.3
2015-Jun-30 21:53 002 4 8.9
2015-Jun-30 21:38 351 4 8.9
2015-Jun-30 21:23 349 4 8.9
2015-Jun-30 21:08 326 5 9.4
2015-Jun-30 20:53 340 5 9.4
2015-Jun-30 20:38 334 6 9.4
2015-Jun-30 20:23 327 6 9.4
2015-Jun-30 20:08 338 4 9.4
2015-Jun-30 19:53 325 6 9.4
2015-Jun-30 19:38 322 6 9.4
2015-Jun-30 19:23 324 6 10.0
2015-Jun-30 19:08 334 6 10.0
2015-Jun-30 18:53 360 6 10.0
2015-Jun-30 18:38 339 7 10.6
2015-Jun-30 18:23 339 7 10.6
2015-Jun-30 18:07 331 6 10.6
2015-Jun-30 17:52 332 6 10.6
2015-Jun-30 17:37 330 6 10.6
2015-Jun-30 17:22 336 6 11.1
2015-Jun-30 17:07 332 6 11.1
2015-Jun-30 16:52 349 6 11.7
2015-Jun-30 16:37 348 6 11.7
2015-Jun-30 16:22 345 6 11.7
2015-Jun-30 16:07 346 5 11.7
2015-Jun-30 15:52 347 5 11.7
2015-Jun-30 15:37 342 6 11.7
2015-Jun-30 15:23 008 4 12.2
2015-Jun-30 15:07 332 4 12.2
2015-Jun-30 14:52 352 5 12.2
2015-Jun-30 14:37 341 3 12.2
2015-Jun-30 14:22 039 12.2
2015-Jun-30 14:07 145 12.2
2015-Jun-30 13:52 144 12.2
2015-Jun-30 13:37 145 0 12.8
2015-Jun-30 13:22 148 0 12.8
2015-Jun-30 13:07 143 1 12.2
2015-Jun-30 12:52 153 3 12.8
2015-Jun-30 12:37 151 3 12.8
2015-Jun-30 12:22 139 1 12.8
2015-Jun-30 12:07 105 0 12.8
2015-Jun-30 11:52 099 12.8
2015-Jun-30 11:37 098 12.8
2015-Jun-30 11:22 026 12.8
2015-Jun-30 11:07 026 1 12.2
2015-Jun-30 10:52 022 2 11.7
2015-Jun-30 10:37 014 4 11.7
2015-Jun-30 10:22 021 2 11.7
2015-Jun-30 10:07 019 4 11.1
2015-Jun-30 09:52 026 3 11.7
2015-Jun-30 09:37 020 5 11.1
2015-Jun-30 09:22 018 5 11.1
2015-Jun-30 09:07 021 5 11.1
2015-Jun-30 08:52 018 5 11.1
2015-Jun-30 08:37 017 5 11.1
2015-Jun-30 08:22 021 6 10.6
2015-Jun-30 08:07 016 6 10.6
2015-Jun-30 07:52 338 5 11.1
2015-Jun-30 07:37 017 6 10.6
2015-Jun-30 07:22 005 5 10.6
2015-Jun-30 07:07 338 5 10.6
2015-Jun-30 06:52 336 4 10.6
2015-Jun-30 06:37 335 5 10.0
2015-Jun-30 06:22 326 6 10.0
2015-Jun-30 06:07 355 5 10.0
2015-Jun-30 05:52 345 4 10.0
2015-Jun-30 05:37 347 6 10.0
2015-Jun-30 05:22 332 5 10.0
2015-Jun-30 05:07 014 5 10.0
2015-Jun-30 04:52 335 6 9.4
2015-Jun-30 04:37 322 5 9.4
2015-Jun-30 04:22 343 4 9.4
2015-Jun-30 04:07 008 4 9.4
2015-Jun-30 03:52 328 5 8.9
2015-Jun-30 03:37 008 6 8.9
2015-Jun-30 03:21 345 6 8.9
2015-Jun-30 03:06 334 6 8.9
2015-Jun-30 02:51 347 5 8.3
2015-Jun-30 02:36 014 6 8.3
2015-Jun-30 02:21 024 5 8.3
2015-Jun-30 02:06 008 5 8.3
2015-Jun-30 01:51 347 6 7.8
2015-Jun-30 01:36 348 5 7.8
2015-Jun-30 01:21 345 6 7.8
2015-Jun-30 01:06 348 6 7.8
2015-Jun-30 00:51 344 6 7.8
2015-Jun-30 00:36 334 6 7.2
2015-Jun-30 00:21 334 6 7.2
2015-Jun-30 00:06 359 6 7.2